Location: Biltmore Gardens
(41.6070°N, 83.4666°W)
Time: 19:57:40
(UTC+00:00)

Courier 1B Rocket - Visible Passes

Search period start: 17 April 2021 00:00
Search period end: 27 April 2021 00:00
Orbit: 920 x 1202 km, 28.2° (Epoch: 17 April)

Date Brightness Start Highest point End Pass type
(mag) Time Alt. Az. Time Alt. Az. Time Alt. Az.
17 Apr 6.6 02:23:47 10° SSW 02:27:09 20° S 02:27:09 20° S visible
18 Apr 6.6 01:23:51 10° SSW 01:28:12 18° SSE 01:30:17 16° SE visible
18 Apr 7.0 03:14:53 10° SW 03:16:41 17° SW 03:16:41 17° SW visible
19 Apr 6.3 02:14:24 10° SW 02:19:43 25° S 02:19:43 25° S visible
20 Apr 6.4 01:14:10 10° SSW 01:19:03 21° SSE 01:22:40 14° SE visible
20 Apr 6.6 03:05:51 10° SW 03:09:02 22° SSW 03:09:02 22° SSW visible
21 Apr 6.1 02:05:14 10° SW 02:10:47 26° S 02:11:54 25° SSE visible
21 Apr 7.3 03:57:51 10° WSW 03:58:16 11° WSW 03:58:16 11° WSW visible
22 Apr 6.3 01:04:48 10° SW 01:09:56 24° S 01:14:41 12° ESE visible
22 Apr 6.4 02:56:58 10° WSW 03:01:04 25° SSW 03:01:04 25° SSW visible
23 Apr 6.2 01:56:14 10° SW 02:01:43 27° S 02:03:47 23° SSE visible
23 Apr 7.2 03:49:17 10° WSW 03:50:10 13° SW 03:50:10 13° SW visible
24 Apr 6.3 00:55:40 10° SW 01:00:53 25° S 01:06:23 10° ESE visible
24 Apr 6.4 02:48:15 10° WSW 02:52:52 24° SSW 02:52:52 24° SSW visible
25 Apr 6.3 01:47:24 10° WSW 01:52:41 25° S 01:55:31 19° SSE visible
25 Apr 7.2 03:41:00 10° WSW 03:41:52 12° SW 03:41:52 12° SW visible
26 Apr 6.3 00:46:42 10° SW 00:51:52 25° S 00:57:17 10° SE visible
26 Apr 6.5 02:39:44 10° WSW 02:44:28 20° SSW 02:44:31 20° SSW visible
